| time (UTC) | temp C | wind direction | speed KPH | gust KPH | rain 1hr cm | rain 24hr cm | rain mn cm | humidity % | barometer mb |
| 20260510081543 | 12 | 89 | 1.6 | 17.7 | 0.00 | 0.00 | 0.00 | 76 | 1012.9 |
| 20260510080035 | 12 | 93 | 1.6 | 9.7 | 0.00 | 0.00 | 0.00 | 77 | 1012.9 |
| 20260510074536 | 12 | 0 | 3.2 | 9.7 | 0.00 | 0.00 | 0.00 | 78 | 1012.9 |
| 20260510073035 | 11 | 142 | 3.2 | 14.5 | 0.00 | 0.00 | 0.00 | 79 | 1012.9 |
| 20260510071540 | 11 | 71 | 3.2 | 9.7 | 0.00 | 0.00 | 0.00 | 79 | 1012.9 |
| 20260510070039 | 11 | 76 | 3.2 | 9.7 | 0.00 | 0.00 | 0.00 | 79 | 1012.9 |
| 20260510064537 | 11 | 63 | 3.2 | 9.7 | 0.00 | 0.00 | 0.00 | 79 | 1012.9 |
| 20260510063037 | 11 | 41 | 3.2 | 9.7 | 0.00 | 0.00 | 0.00 | 78 | 1013.0 |
| 20260510061536 | 12 | 39 | 3.2 | 11.3 | 0.00 | 0.00 | 0.00 | 77 | 1013.0 |
| 20260510060031 | 12 | 163 | 4.8 | 9.7 | 0.00 | 0.00 | 0.00 | 77 | 1013.0 |
| 20260510054536 | 12 | 62 | 3.2 | 14.5 | 0.00 | 0.00 | 0.00 | 76 | 1013.2 |
| 20260510053038 | 12 | 133 | 3.2 | 12.9 | 0.00 | 0.00 | 0.00 | 76 | 1013.4 |
| 20260510051536 | 12 | 53 | 3.2 | 11.3 | 0.00 | 0.00 | 0.00 | 75 | 1013.4 |
| 20260510050035 | 12 | 74 | 3.2 | 11.3 | 0.00 | 0.00 | 0.00 | 75 | 1013.5 |
| 20260510044534 | 12 | 74 | 3.2 | 11.3 | 0.00 | 0.00 | 0.00 | 74 | 1013.4 |
| 20260510043039 | 12 | 92 | 3.2 | 9.7 | 0.00 | 0.00 | 0.00 | 73 | 1013.2 |
| 20260510041534 | 12 | 63 | 3.2 | 8.0 | 0.00 | 0.00 | 0.00 | 72 | 1012.8 |
| 20260510040034 | 12 | 97 | 3.2 | 9.7 | 0.00 | 0.00 | 0.00 | 71 | 1012.9 |
| 20260510034542 | 12 | 101 | 3.2 | 11.3 | 0.00 | 0.00 | 0.00 | 70 | 1013.0 |
| 20260510033035 | 12 | 94 | 3.2 | 11.3 | 0.00 | 0.00 | 0.00 | 70 | 1012.7 |
| 20260510031535 | 12 | 140 | 3.2 | 11.3 | 0.00 | 0.00 | 0.00 | 69 | 1012.5 |
| 20260510030037 | 13 | 68 | 1.6 | 6.4 | 0.00 | 0.00 | 0.00 | 68 | 1012.5 |
| 20260510024538 | 13 | 84 | 3.2 | 6.4 | 0.00 | 0.00 | 0.00 | 68 | 1012.7 |
| 20260510023036 | 13 | 79 | 3.2 | 9.7 | 0.00 | 0.00 | 0.00 | 67 | 1012.5 |
| 20260510021535 | 13 | 58 | 3.2 | 8.0 | 0.00 | 0.00 | 0.00 | 66 | 1012.4 |
| 20260510020038 | 13 | 82 | 0.0 | 6.4 | 0.00 | 0.00 | 0.00 | 65 | 1012.4 |
| 20260510014541 | 14 | 0 | 1.6 | 8.0 | 0.00 | 0.00 | 0.00 | 64 | 1012.2 |
| 20260510013033 | 14 | 66 | 1.6 | 8.0 | 0.00 | 0.00 | 0.00 | 63 | 1012.0 |
| 20260510011541 | 14 | 41 | 1.6 | 8.0 | 0.00 | 0.00 | 0.00 | 63 | 1011.7 |
| 20260510010036 | 14 | 146 | 0.0 | 6.4 | 0.00 | 0.00 | 0.00 | 63 | 1011.4 |
| 20260510004537 | 14 | 74 | 1.6 | 6.4 | 0.00 | 0.00 | 0.00 | 63 | 1010.9 |
| 20260510003031 | 15 | 45 | 1.6 | 8.0 | 0.00 | 0.00 | 0.00 | 62 | 1010.7 |
| 20260510001537 | 15 | 117 | 1.6 | 6.4 | 0.00 | 0.00 | 0.00 | 62 | 1010.7 |
| 20260510000056 | 15 | 32 | 3.2 | 9.7 | 0.00 | 0.00 | 0.00 | 61 | 1010.7 |
| 20260509234548 | 15 | 99 | 1.6 | 6.4 | 0.00 | 0.00 | 0.00 | 60 | 1010.6 |
| 20260509233035 | 15 | 0 | 1.6 | 9.7 | 0.00 | 0.00 | 0.00 | 59 | 1010.4 |
| 20260509231532 | 15 | 166 | 0.0 | 4.8 | 0.00 | 0.00 | 0.00 | 60 | 1010.4 |
| 20260509230037 | 16 | 203 | 1.6 | 14.5 | 0.00 | 0.00 | 0.00 | 59 | 1010.7 |
| 20260509224535 | 16 | 177 | 4.8 | 12.9 | 0.00 | 0.00 | 0.00 | 57 | 1010.6 |
| 20260509223036 | 16 | 29 | 1.6 | 12.9 | 0.00 | 0.00 | 0.00 | 57 | 1010.7 |
| 20260509221535 | 16 | 269 | 3.2 | 12.9 | 0.00 | 0.00 | 0.00 | 57 | 1010.8 |
| 20260509220036 | 16 | 143 | 1.6 | 6.4 | 0.00 | 0.00 | 0.00 | 59 | 1010.9 |
| 20260509214536 | 16 | 344 | 0.0 | 8.0 | 0.00 | 0.00 | 0.00 | 61 | 1010.8 |
| 20260509213040 | 16 | 314 | 0.0 | 6.4 | 0.00 | 0.00 | 0.00 | 57 | 1010.8 |
| 20260509211539 | 17 | 3 | 0.0 | 4.8 | 0.00 | 0.00 | 0.00 | 58 | 1010.4 |
| 20260509210042 | 17 | 35 | 3.2 | 22.5 | 0.00 | 0.00 | 0.00 | 53 | 1010.2 |
| 20260509204541 | 16 | 307 | 0.0 | 9.7 | 0.00 | 0.00 | 0.00 | 56 | 1010.3 |
| 20260509203036 | 16 | 313 | 1.6 | 4.8 | 0.00 | 0.00 | 0.00 | 55 | 1010.2 |
| 20260509201538 | 16 | 316 | 4.8 | 12.9 | 0.00 | 0.00 | 0.00 | 54 | 1010.2 |
| 20260509200041 | 17 | 324 | 3.2 | 9.7 | 0.00 | 0.00 | 0.00 | 51 | 1010.0 |
| 20260509194538 | 17 | 0 | 1.6 | 12.9 | 0.00 | 0.00 | 0.00 | 52 | 1010.2 |
| 20260509193036 | 17 | 22 | 4.8 | 9.7 | 0.00 | 0.00 | 0.00 | 50 | 1010.2 |
| 20260509191536 | 17 | 307 | 1.6 | 9.7 | 0.00 | 0.00 | 0.00 | 50 | 1010.3 |
| 20260509190036 | 17 | 27 | 4.8 | 17.7 | 0.00 | 0.00 | 0.00 | 47 | 1010.2 |
| 20260509184553 | 17 | 182 | 1.6 | 20.9 | 0.00 | 0.00 | 0.00 | 50 | 1010.2 |
| 20260509183035 | 17 | 2 | 3.2 | 16.1 | 0.00 | 0.00 | 0.00 | 52 | 1010.1 |
| 20260509181539 | 16 | 151 | 4.8 | 17.7 | 0.00 | 0.00 | 0.00 | 54 | 1010.1 |
| 20260509180035 | 16 | 0 | 1.6 | 14.5 | 0.00 | 0.00 | 0.00 | 54 | 1010.2 |
| 20260509174537 | 16 | 145 | 8.0 | 20.9 | 0.00 | 0.00 | 0.00 | 54 | 1010.2 |
| 20260509173038 | 16 | 141 | 8.0 | 29.0 | 0.00 | 0.00 | 0.00 | 54 | 1010.4 |
| 20260509171537 | 16 | 116 | 6.4 | 20.9 | 0.00 | 0.00 | 0.00 | 53 | 1010.6 |
| 20260509170038 | 15 | 162 | 4.8 | 16.1 | 0.00 | 0.00 | 0.00 | 56 | 1010.7 |
| 20260509164534 | 14 | 99 | 1.6 | 12.9 | 0.00 | 0.00 | 0.00 | 59 | 1010.8 |
| 20260509163035 | 14 | 83 | 3.2 | 11.3 | 0.00 | 0.00 | 0.00 | 57 | 1010.8 |
| 20260509161533 | 13 | 0 | 1.6 | 6.4 | 0.00 | 0.00 | 0.00 | 58 | 1010.9 |
| 20260509160040 | 13 | 167 | 0.0 | 6.4 | 0.00 | 0.00 | 0.00 | 60 | 1010.8 |
| 20260509154535 | 13 | 0 | 1.6 | 6.4 | 0.00 | 0.00 | 0.00 | 60 | 1010.9 |
| 20260509153043 | 13 | 354 | 3.2 | 6.4 | 0.00 | 0.00 | 0.00 | 60 | 1011.3 |
| 20260509151536 | 13 | 313 | 0.0 | 4.8 | 0.00 | 0.00 | 0.00 | 59 | 1011.3 |
| 20260509150040 | 13 | 357 | 1.6 | 4.8 | 0.00 | 0.00 | 0.00 | 58 | 1011.3 |
| 20260509144549 | 14 | 359 | 1.6 | 4.8 | 0.00 | 0.00 | 0.00 | 56 | 1011.1 |
| 20260509143036 | 13 | 0 | 0.0 | 3.2 | 0.00 | 0.00 | 0.00 | 58 | 1010.9 |
| 20260509141538 | 13 | 326 | 0.0 | 3.2 | 0.00 | 0.00 | 0.00 | 64 | 1010.9 |
| 20260509140037 | 12 | 0 | 0.0 | 4.8 | 0.00 | 0.00 | 0.00 | 67 | 1010.7 |
| 20260509134553 | 11 | 22 | 1.6 | 4.8 | 0.00 | 0.00 | 0.00 | 66 | 1010.8 |
| 20260509133043 | 11 | 311 | 1.6 | 3.2 | 0.00 | 0.00 | 0.00 | 66 | 1010.9 |
| 20260509131537 | 11 | 340 | 1.6 | 3.2 | 0.00 | 0.00 | 0.00 | 66 | 1011.1 |
| 20260509130051 | 11 | 284 | 0.0 | 3.2 | 0.00 | 0.00 | 0.00 | 67 | 1010.9 |
| 20260509124537 | 10 | 0 | 0.0 | 3.2 | 0.00 | 0.00 | 0.00 | 68 | 1010.8 |
| 20260509123032 | 10 | 0 | 0.0 | 3.2 | 0.00 | 0.00 | 0.00 | 69 | 1010.9 |
| 20260509121544 | 10 | 190 | 1.6 | 4.8 | 0.00 | 0.00 | 0.00 | 69 | 1010.9 |
| 20260509120035 | 10 | 0 | 0.0 | 6.4 | 0.00 | 0.00 | 0.00 | 68 | 1011.1 |
| 20260509114538 | 10 | 0 | 0.0 | 1.6 | 0.00 | 0.00 | 0.00 | 70 | 1011.3 |
| 20260509113039 | 9 | 0 | 0.0 | 3.2 | 0.00 | 0.00 | 0.00 | 69 | 1011.2 |
| 20260509111545 | 9 | 0 | 0.0 | 1.6 | 0.00 | 0.00 | 0.00 | 69 | 1011.2 |
| 20260509110036 | 9 | 0 | 0.0 | 0.0 | 0.00 | 0.00 | 0.00 | 67 | 1011.2 |
| 20260509104543 | 9 | 0 | 0.0 | 0.0 | 0.00 | 0.00 | 0.00 | 67 | 1011.1 |
| 20260509103038 | 10 | 0 | 0.0 | 0.0 | 0.00 | 0.00 | 0.00 | 65 | 1010.9 |
| 20260509101606 | 10 | 0 | 0.0 | 3.2 | 0.00 | 0.00 | 0.00 | 65 | 1011.0 |
| 20260509100040 | 10 | 355 | 4.8 | 6.4 | 0.00 | 0.00 | 0.00 | 63 | 1011.0 |
| 20260509094539 | 11 | 139 | 1.6 | 6.4 | 0.00 | 0.00 | 0.00 | 56 | 1010.8 |
| 20260509093037 | 11 | 115 | 1.6 | 11.3 | 0.00 | 0.00 | 0.00 | 55 | 1010.8 |
| 20260509091541 | 11 | 157 | 1.6 | 11.3 | 0.00 | 0.00 | 0.00 | 55 | 1011.0 |
| 20260509090039 | 11 | 101 | 3.2 | 9.7 | 0.00 | 0.00 | 0.00 | 55 | 1011.1 |
| 20260509084537 | 11 | 107 | 3.2 | 11.3 | 0.00 | 0.00 | 0.00 | 55 | 1011.1 |
| 20260509083035 | 11 | 102 | 3.2 | 12.9 | 0.00 | 0.00 | 0.00 | 55 | 1011.1 |